GFSNGP_sfc_thetae_057.txt.gz
Theta_e
288 289 289 289 288 289 288 288 283 287 288 292 295 297 299 300 300 300 300 301 302 303 306 308 308 311 312 312 315 319 322 326 328 331 333 333 334 337 339 341 342 344 345 345
284 289 289 287 289 290 290 290 289 290 290 297 299 299 298 299 298 298 299 300 301 303 306 306 307 310 312 312 315 318 321 324 330 333 332 333 336 337 338 341 343 344 344 344
280 287 287 284 289 290 291 293 292 288 293 298 296 297 297 297 298 297 299 300 301 303 303 305 307 310 312 314 315 317 321 323 329 335 332 333 334 334 335 338 342 342 344 343
282 285 278 289 294 294 292 293 295 295 295 297 297 298 298 298 298 299 300 301 302 303 305 307 308 310 313 314 315 316 320 322 332 333 331 332 333 334 335 340 342 342 341 339
282 282 286 288 292 292 290 289 295 294 295 296 296 297 295 298 299 298 300 302 303 304 307 307 308 311 312 311 314 313 322 322 332 331 330 331 333 334 337 339 337 337 334 330
285 279 277 288 294 297 295 286 296 295 294 294 295 286 290 298 299 300 302 303 303 305 307 308 309 311 310 310 311 318 321 323 332 332 332 334 333 334 335 336 332 326 326 330
282 281 286 293 296 297 284 287 296 296 295 296 293 294 298 299 301 301 302 303 305 307 307 309 311 311 310 312 316 320 323 327 331 332 333 333 333 333 330 329 324 325 324 324
285 282 279 296 295 287 293 296 296 298 298 296 297 297 296 298 299 300 302 303 305 305 307 309 311 310 311 314 320 324 324 328 330 330 330 330 329 328 327 322 323 322 322 322
287 288 296 297 296 299 299 298 299 298 298 297 296 297 298 298 298 301 302 303 306 305 306 309 310 313 313 316 322 326 327 328 328 329 328 329 325 324 321 322 321 320 320 320
288 293 294 298 299 301 301 299 299 298 297 297 294 296 296 297 299 300 300 301 303 305 305 307 311 313 315 320 322 326 326 326 327 325 326 325 325 326 326 323 322 321 321 321
289 293 296 297 299 300 299 299 298 298 297 296 296 296 297 297 298 299 300 302 304 304 306 309 312 314 318 321 325 324 325 324 324 326 325 323 321 327 328 329 323 324 324 322
287 293 294 296 300 300 298 297 298 296 296 297 297 296 297 297 298 299 299 301 303 306 309 309 313 316 320 325 327 327 322 325 322 320 320 321 319 314 295 299 300 301 306 317
294 300 300 300 299 298 296 297 297 297 297 296 297 297 297 297 298 298 300 303 305 311 319 319 319 321 325 326 328 327 325 322 320 319 322 322 322 317 311 303 295 294 295 297
300 300 295 296 294 298 298 297 298 298 297 297 296 297 297 296 297 298 300 302 308 316 320 322 322 323 323 323 325 325 322 309 323 325 325 321 321 320 320 317 315 312 296 299
300 299 297 297 297 297 297 296 294 294 295 295 296 295 295 295 295 297 301 306 310 313 320 323 323 323 326 327 327 325 324 325 323 322 322 319 322 322 321 319 314 309 308 301
298 298 297 296 295 296 295 295 292 292 293 294 293 294 295 296 297 298 301 306 305 306 310 317 319 323 325 327 327 327 325 307 314 323 324 322 321 321 319 315 315 313 310 310
294 294 296 295 294 295 295 295 294 293 294 293 294 295 295 295 296 296 298 302 307 305 307 307 311 325 327 328 325 322 322 324 311 326 325 322 320 318 316 315 313 312 312 311
302 298 299 297 295 295 295 296 295 294 294 295 295 295 294 294 293 294 296 299 304 306 301 306 308 328 327 328 327 326 324 323 323 321 322 322 321 320 317 315 314 314 312 303
301 302 299 298 297 296 296 295 295 295 295 295 295 294 294 294 294 294 296 296 297 299 298 304 299 320 327 317 323 328 326 321 321 321 322 312 319 318 316 315 314 315 313 308
298 300 303 299 298 297 296 296 296 295 295 295 294 293 292 293 294 293 295 294 295 295 298 301 310 318 323 317 313 328 327 321 319 319 320 320 319 318 315 309 315 313 308 304
297 300 301 298 298 297 297 297 295 294 295 295 294 293 293 293 294 293 293 295 295 295 298 299 303 315 321 322 324 328 323 319 319 319 319 318 317 315 315 313 310 306 302 301
296 299 301 299 298 297 298 298 296 295 295 294 294 294 293 292 293 294 294 292 294 291 297 299 301 294 307 307 328 326 321 319 319 319 319 318 315 311 309 308 305 301 300 300
295 298 300 298 298 297 298 297 296 295 294 294 293 293 293 293 293 291 290 294 294 291 295 295 289 291 294 312 314 317 319 319 318 316 313 311 310 307 304 304 302 299 296 295
293 295 299 300 300 298 296 297 297 296 295 295 295 295 294 292 293 295 295 292 289 291 292 290 290 290 297 307 306 306 307 306 308 307 304 298 306 303 300 301 296 293 291 292
291 293 295 297 297 296 297 297 297 296 296 295 294 295 295 296 294 294 294 294 290 292 294 289 288 290 298 299 300 300 300 302 301 301 300 299 299 297 296 295 294 292 291 290
289 291 293 295 295 296 297 296 296 296 295 294 294 294 295 295 295 295 295 292 293 291 293 293 293 294 293 294 295 295 295 295 295 294 294 294 294 292 291 291 290 290 289 289
289 289 291 292 293 294 297 295 295 295 294 294 294 294 293 293 293 292 290 292 293 293 292 291 292 291 292 292 291 290 291 291 291 292 292 291 291 290 289 288 288 288 288 287

GFSNGP_sfc_thetae_060.txt.gz
Theta_e
292 292 292 291 290 291 289 290 287 291 292 296 299 301 302 304 305 304 304 304 305 306 307 308 310 312 313 314 316 318 317 321 325 330 333 335 334 337 341 341 342 345 346 346
288 291 291 290 292 293 293 294 293 294 293 300 302 303 301 300 302 303 303 303 304 305 306 307 309 311 312 312 315 318 318 320 324 327 330 334 336 339 340 340 342 344 345 345
284 289 290 287 292 293 295 296 295 291 296 301 300 300 299 301 302 302 302 302 302 303 306 308 309 311 311 313 316 316 318 320 324 327 329 332 336 338 339 342 347 346 346 347
284 287 280 292 297 296 294 296 298 298 299 300 301 302 301 304 302 301 301 301 304 304 305 308 310 311 312 313 315 315 316 320 322 325 328 332 336 338 342 344 349 349 348 348
284 285 289 292 295 295 293 293 298 298 299 300 301 301 298 303 303 301 301 303 304 305 306 305 308 310 312 312 312 315 316 319 321 325 329 332 336 338 339 340 343 343 344 345
287 281 279 291 296 299 298 287 299 299 298 298 297 290 296 303 302 301 303 301 304 305 306 308 309 310 312 311 312 314 316 318 323 328 327 332 334 334 338 340 341 341 342 343
284 283 288 297 298 299 285 290 300 300 298 298 295 299 301 301 301 302 303 303 305 305 306 308 311 312 311 311 312 316 318 320 325 327 328 332 333 336 338 338 339 338 337 335
286 283 282 299 298 289 297 300 300 300 300 298 299 299 299 300 299 300 301 302 304 304 304 307 310 309 311 311 314 315 317 320 325 324 331 333 333 334 335 337 335 333 332 328
290 291 299 300 299 302 302 300 300 300 300 300 298 298 297 297 298 299 301 302 304 304 304 308 310 310 310 315 316 318 320 322 323 329 331 333 330 331 334 336 332 329 329 327
290 295 296 299 302 303 303 301 301 301 299 299 297 297 296 297 298 298 300 301 303 303 303 304 308 311 315 317 320 320 320 323 328 327 327 329 330 334 334 332 329 328 327 327
292 296 297 298 300 302 300 300 300 301 299 297 296 296 296 297 297 298 299 301 303 302 302 304 308 311 317 320 322 319 320 325 326 326 327 328 330 333 332 332 328 328 328 329
286 290 291 294 301 300 299 298 299 296 296 297 297 296 297 296 297 297 298 299 299 300 302 304 308 314 317 319 322 322 324 324 325 324 324 327 325 315 298 301 298 301 307 321
291 296 300 300 298 300 298 296 297 296 296 294 296 296 296 296 297 298 298 298 300 301 303 306 310 312 318 323 324 323 324 322 323 324 326 324 325 321 317 309 296 295 296 300
297 301 297 297 297 299 297 297 298 297 296 296 296 297 296 296 296 296 297 299 302 315 320 317 314 314 317 316 324 325 325 311 329 326 327 327 326 325 324 324 322 320 300 304
298 302 301 301 299 298 297 297 295 294 295 295 296 295 295 294 295 296 299 302 307 315 323 322 322 322 327 328 326 326 328 326 327 328 328 325 328 327 325 325 323 318 313 303
298 303 301 299 298 297 296 296 294 294 294 295 295 294 295 296 296 298 299 301 306 307 314 320 324 327 329 330 329 329 327 310 318 328 327 327 325 326 324 321 320 321 319 313
296 296 300 299 298 298 296 296 295 294 294 294 294 295 295 295 295 295 297 301 309 306 311 322 326 327 330 328 325 326 328 328 314 327 326 327 326 324 321 321 320 321 318 316
298 300 302 302 299 297 297 296 295 295 294 295 295 295 294 293 293 294 297 302 305 307 305 315 323 330 330 329 329 329 328 326 326 327 325 324 323 324 321 319 319 316 313 306
298 299 303 301 300 298 299 296 295 295 295 295 294 293 294 294 294 294 297 298 297 300 299 309 303 322 329 321 324 329 328 328 328 326 323 313 320 320 319 317 315 315 315 313
297 299 303 301 301 299 299 298 296 295 295 295 294 293 292 293 294 294 296 297 296 295 301 306 319 331 331 323 314 327 326 324 323 321 320 318 319 319 319 310 316 313 308 307
295 298 301 302 301 300 300 299 296 294 295 295 293 292 292 293 294 294 293 295 295 294 300 300 306 327 333 325 326 328 326 324 323 321 319 317 317 318 317 315 311 305 305 304
294 296 299 302 301 299 300 300 299 295 295 294 294 293 293 292 293 294 294 292 295 291 297 301 301 296 320 304 329 324 323 323 322 321 319 319 318 314 312 310 304 302 301 299
293 295 297 301 302 301 301 300 298 297 294 294 294 293 292 293 293 291 291 293 295 293 296 297 291 290 297 328 325 323 322 321 320 318 318 317 313 310 308 305 303 300 298 296
291 292 295 298 302 301 299 299 299 299 297 295 295 295 293 292 293 295 296 293 289 292 293 290 291 290 297 313 315 317 316 315 314 314 312 302 309 307 306 302 299 298 296 297
291 290 293 295 297 298 300 300 300 298 297 297 295 295 294 294 292 292 294 295 290 292 295 290 289 291 302 303 304 306 308 309 308 308 308 307 307 309 307 301 296 296 294 292
290 289 290 294 294 296 298 300 297 298 296 296 296 296 294 294 292 292 293 291 293 291 292 292 292 294 294 296 298 298 299 301 303 301 303 303 301 303 300 296 293 292 292 290
290 289 290 290 291 294 296 298 298 297 297 296 294 296 296 293 292 290 289 291 291 291 291 291 291 291 292 292 292 293 293 295 294 297 296 296 295 295 294 293 291 290 289 288

GFSNGP_sfc_thetae_063.txt.gz
Theta_e
293 294 293 292 292 293 292 293 288 292 293 296 299 301 303 306 307 306 306 307 308 309 309 310 310 311 311 312 314 317 316 317 321 325 327 328 331 336 336 338 339 338 344 347
290 293 292 290 292 293 293 294 294 295 294 301 303 304 304 303 306 305 305 307 308 308 308 308 309 309 311 314 313 316 315 315 319 320 322 327 331 336 339 337 341 342 344 347
286 291 291 287 292 294 295 295 294 292 298 301 300 302 303 304 304 304 305 305 306 307 307 306 308 310 307 309 314 314 314 315 317 319 320 324 327 331 334 341 346 347 347 350
287 289 281 292 298 298 296 297 298 298 299 301 302 304 305 304 303 304 305 304 305 306 307 309 309 310 311 311 310 312 313 314 316 317 319 323 325 332 336 342 346 348 349 353
285 286 290 293 297 297 295 294 299 299 301 302 301 302 302 304 306 305 306 306 305 307 309 309 308 307 309 309 309 309 312 314 315 317 319 322 324 333 338 341 344 348 351 352
289 283 281 292 298 301 300 290 302 301 299 298 298 292 298 303 305 305 305 306 304 306 307 309 308 310 308 308 309 309 311 314 316 316 318 322 328 333 339 342 344 346 346 349
287 285 290 298 300 301 287 291 301 301 300 299 297 300 303 304 304 305 305 306 306 306 305 306 307 306 308 310 309 312 313 316 316 319 321 326 330 336 340 342 341 342 342 343
289 286 283 301 299 291 299 302 301 300 301 300 300 301 301 302 303 304 304 303 304 303 303 305 306 307 305 306 311 313 314 315 316 321 322 327 330 336 339 340 337 336 334 338
292 293 301 302 301 304 304 301 301 300 299 299 300 300 301 301 302 301 301 301 302 302 304 306 307 308 306 309 313 314 314 315 317 318 322 329 329 332 337 333 331 332 334 332
293 297 297 300 303 303 304 301 300 300 301 299 297 298 297 297 298 298 299 299 301 300 301 302 306 307 308 310 312 313 313 314 315 317 325 330 331 335 330 331 335 332 331 330
292 296 295 298 300 303 301 301 300 300 297 296 296 295 295 295 296 297 297 299 300 300 300 302 305 307 309 312 314 312 314 315 318 321 323 328 328 329 337 340 334 334 333 330
286 292 292 293 300 302 299 299 300 295 296 297 296 295 295 295 296 297 297 298 299 300 301 302 304 307 310 315 315 316 319 321 320 324 324 319 324 313 300 301 303 306 310 324
289 293 295 301 303 302 300 300 298 296 296 295 296 296 296 294 296 296 297 298 297 298 300 302 304 308 314 316 319 320 313 319 323 322 325 324 324 323 321 308 299 299 302 305
298 299 297 301 299 301 301 301 299 298 297 296 295 296 295 295 295 296 296 297 299 300 304 304 304 310 316 319 321 317 318 310 325 325 326 326 328 327 326 325 323 321 300 304
296 296 301 302 302 300 300 300 296 294 294 294 295 294 294 293 294 295 297 299 302 317 319 312 309 313 318 319 323 324 324 327 326 326 329 325 326 325 327 326 324 319 313 303
293 299 302 300 301 299 298 299 295 293 294 294 293 292 294 295 295 296 297 300 306 314 322 318 318 319 321 326 326 326 325 309 318 328 324 325 327 324 325 324 322 322 321 314
293 294 297 300 300 298 297 298 296 294 294 293 293 293 294 294 294 295 296 300 307 312 315 323 325 325 329 328 327 327 327 324 316 326 326 326 326 327 325 324 323 321 319 317
297 300 301 302 300 298 298 299 296 294 293 294 293 294 293 293 292 294 296 301 302 317 308 317 319 328 328 329 330 329 328 326 327 327 327 327 326 325 323 323 322 319 317 310
298 299 302 303 303 300 299 299 297 295 294 294 292 292 293 293 293 295 296 298 298 300 300 308 304 319 326 321 323 327 326 326 326 327 327 316 323 323 322 320 318 318 318 316
296 299 301 302 304 301 299 300 299 295 294 294 292 291 291 293 294 294 294 296 295 295 301 308 328 331 330 323 314 327 328 328 325 323 322 322 322 322 318 311 318 317 313 310
294 295 299 300 303 304 301 300 299 297 295 295 292 290 291 293 293 294 292 291 294 294 298 303 311 316 331 323 324 327 328 326 323 322 322 322 319 319 318 317 313 312 307 305
293 292 296 299 301 301 302 301 300 298 297 294 293 291 291 291 292 293 294 291 293 291 296 300 302 298 315 305 328 327 326 324 323 320 321 320 318 317 315 312 308 306 304 303
293 291 293 297 299 301 303 301 300 298 297 296 294 292 290 290 291 290 290 293 292 291 295 295 291 294 298 327 324 325 324 322 322 321 319 319 318 315 311 304 303 304 302 301
293 291 292 296 300 301 299 302 301 299 299 298 297 295 292 289 290 292 293 292 289 290 293 290 290 290 298 318 319 319 319 319 319 318 316 306 315 311 305 301 299 297 296 299
293 291 291 293 295 296 299 300 301 300 299 298 298 298 295 294 290 291 293 292 290 291 292 290 289 290 302 307 311 313 313 314 314 314 312 310 308 304 302 299 299 296 293 292
292 291 290 291 290 292 296 297 300 300 298 296 297 300 299 295 293 292 292 290 291 290 291 291 291 293 294 296 301 304 306 307 308 310 309 306 303 301 299 295 293 293 293 289
292 290 292 293 292 290 292 294 296 299 299 297 295 297 299 298 294 292 290 291 290 290 290 290 291 290 291 292 294 296 299 300 298 301 303 305 302 298 295 294 290 288 287 287

GFSNGP_sfc_thetae_069.txt.gz
Theta_e
289 291 290 289 290 291 289 289 283 288 288 291 295 297 298 300 302 303 304 304 306 306 305 304 304 306 307 306 306 307 307 306 306 307 308 310 314 318 320 321 322 323 325 328
287 291 291 289 292 292 291 291 290 291 290 295 296 299 299 300 302 303 303 305 305 305 304 303 305 306 307 305 305 306 306 306 307 308 309 309 311 315 317 318 320 323 325 327
280 289 288 283 290 291 292 294 291 286 291 296 296 298 297 300 302 302 303 304 304 303 303 303 304 306 305 306 306 305 305 307 308 308 309 309 310 314 314 315 318 321 324 325
280 284 276 289 294 294 293 294 296 296 296 297 296 299 299 299 299 298 299 299 300 301 302 303 305 303 304 305 305 306 305 306 307 308 308 308 308 309 311 311 313 316 319 322
276 277 286 291 295 293 291 290 296 294 295 296 296 297 295 300 300 299 299 301 301 302 302 302 302 304 304 304 304 304 305 306 307 307 306 307 307 307 308 311 314 317 321 324
281 277 272 289 296 298 296 283 295 296 295 294 295 288 291 297 299 298 299 299 299 301 302 303 303 304 303 303 303 303 305 306 307 307 306 306 307 307 308 313 316 318 320 322
282 278 285 295 297 298 280 284 295 296 295 294 292 294 297 299 298 299 298 298 299 300 300 301 303 303 303 303 302 305 306 307 307 307 307 307 307 307 307 310 314 316 320 321
286 280 277 297 295 286 291 295 295 295 296 295 297 298 296 296 296 296 297 298 299 298 298 300 301 302 302 301 303 305 306 307 306 306 307 309 307 307 308 312 312 314 316 319
285 284 293 295 293 295 296 295 296 296 298 298 298 295 295 295 296 296 297 298 298 298 298 299 301 302 301 302 304 305 305 306 306 307 308 309 308 309 309 312 312 315 317 319
287 292 290 294 296 296 297 296 299 299 298 297 295 295 294 294 294 295 295 295 296 296 296 297 299 299 301 303 304 304 303 305 306 307 308 309 310 311 310 312 313 315 316 318
287 291 291 295 294 295 296 299 300 300 298 296 295 295 294 292 292 293 294 294 294 294 295 296 299 299 300 302 303 302 303 304 307 307 307 308 309 310 312 313 314 315 319 322
283 290 290 291 294 296 297 298 299 298 296 296 296 294 293 290 291 291 290 291 291 292 293 295 296 296 299 302 303 302 303 304 305 306 307 309 309 308 297 298 300 301 304 317
288 293 294 296 297 298 297 299 300 298 296 294 295 294 292 289 289 289 289 290 291 292 293 293 294 295 297 300 302 303 302 305 307 307 310 310 309 310 311 302 297 298 300 302
295 294 292 294 293 298 301 300 300 297 296 296 294 294 291 290 289 289 292 295 296 299 299 298 298 297 298 300 302 304 305 301 308 310 311 311 312 314 315 313 314 310 301 305
293 294 295 297 298 299 301 300 296 295 295 293 294 293 291 288 289 292 294 297 303 303 306 301 299 299 301 302 303 304 306 310 310 313 315 314 317 318 318 318 313 307 307 302
294 294 295 295 296 297 298 299 295 294 294 293 293 291 289 290 291 293 295 298 303 301 302 301 300 301 303 304 305 307 314 307 310 316 317 319 320 319 315 313 313 313 312 308
291 290 293 293 294 296 297 299 297 295 294 293 293 291 289 290 290 291 293 296 299 301 298 301 307 305 307 307 312 316 316 318 308 320 319 320 319 319 318 317 315 314 314 312
296 295 295 294 295 295 297 299 298 295 294 295 293 291 291 289 289 291 292 294 295 296 296 297 302 317 318 318 316 320 322 318 319 318 320 321 321 319 316 316 317 316 313 302
295 294 294 294 295 296 297 298 298 296 295 295 293 292 292 291 291 291 292 293 290 290 290 296 298 317 321 314 316 325 325 323 322 321 321 312 317 317 316 317 316 316 314 317
294 295 294 294 296 296 296 299 299 296 295 295 294 293 291 291 291 291 291 291 289 290 292 296 302 309 322 316 313 324 324 322 320 319 318 317 316 315 315 309 315 315 314 314
292 293 292 293 294 295 297 297 298 297 295 296 293 293 293 292 292 291 289 287 289 290 292 293 295 297 309 318 322 323 322 320 318 316 315 315 313 312 312 311 310 309 309 309
292 292 292 292 293 293 295 296 296 298 296 295 295 295 294 292 291 291 291 289 290 288 291 292 292 291 301 306 321 320 318 317 315 315 314 312 309 309 308 307 307 306 305 304
291 292 293 292 292 292 293 294 294 298 296 295 294 295 294 293 292 289 287 290 290 288 291 290 288 289 293 320 319 318 317 316 315 313 311 308 307 306 306 304 305 303 301 299
291 291 292 294 294 292 290 292 293 296 297 298 295 297 296 293 293 293 292 290 288 288 289 288 288 288 294 315 318 317 316 314 311 308 305 299 304 303 303 302 301 299 296 293
291 291 292 293 291 291 292 292 292 294 296 297 296 295 297 297 293 293 291 289 288 288 288 288 287 289 295 300 308 309 312 310 307 305 303 302 302 301 300 298 297 296 295 294
290 289 291 291 290 291 292 292 290 292 295 293 295 294 294 296 295 293 291 288 288 287 287 288 288 289 291 292 297 301 306 305 304 301 299 298 297 296 297 294 293 291 291 290
292 290 290 290 291 292 291 290 290 290 293 292 294 294 293 296 294 292 289 288 287 287 286 287 287 287 288 289 291 295 300 299 296 298 297 296 294 291 291 291 289 289 288 288

GFSNGP_sfc_thetae_072.txt.gz
Theta_e
288 290 290 288 289 290 288 288 283 286 288 290 292 294 295 298 300 302 302 303 305 305 305 305 305 305 306 304 305 305 306 305 304 305 305 305 305 306 309 313 315 319 322 321
285 289 290 286 290 291 291 291 290 290 287 294 295 297 297 297 299 299 301 303 305 305 305 304 304 306 307 305 304 304 304 304 306 306 306 306 305 306 306 307 310 311 313 318
279 287 286 281 288 290 290 292 290 284 291 296 293 294 294 296 297 297 299 299 299 299 300 300 302 303 304 306 306 304 304 305 306 306 306 306 307 307 306 306 311 313 315 318
278 281 275 289 294 293 292 293 293 292 293 295 294 295 296 296 295 295 296 297 298 298 299 300 301 302 304 305 305 305 304 304 306 306 306 306 305 306 306 305 307 310 313 316
275 275 283 289 293 292 290 289 293 291 292 294 295 295 294 296 296 296 298 298 299 300 299 300 300 301 302 302 303 304 304 304 305 306 305 305 305 305 306 304 307 307 310 311
282 278 270 288 294 297 295 282 293 292 291 291 293 287 290 296 298 299 299 298 298 299 300 299 299 300 300 300 302 303 304 304 305 305 304 304 305 304 305 305 306 308 313 316
282 276 281 293 295 295 279 281 292 293 293 294 292 293 296 298 299 300 298 298 298 299 298 299 300 299 298 300 300 303 305 306 305 305 304 305 305 304 304 305 305 306 310 313
285 281 277 295 292 284 289 292 293 294 294 294 295 297 298 297 296 296 297 297 297 297 298 299 300 299 298 298 301 303 305 305 304 304 305 306 305 304 305 305 303 306 309 312
285 282 291 293 292 293 293 292 294 294 296 297 297 296 296 294 295 295 296 296 296 295 296 298 299 300 298 300 301 303 304 302 303 304 305 306 304 304 304 305 304 305 308 310
285 289 289 291 294 294 294 294 296 297 298 298 297 295 294 293 293 294 294 294 294 293 292 294 297 298 299 300 301 302 302 302 303 304 304 305 308 307 306 306 307 309 310 311
284 289 290 292 293 294 295 296 297 298 298 298 296 294 293 292 291 291 291 291 291 290 291 292 294 296 298 300 300 300 302 302 302 304 305 305 306 307 308 309 309 309 311 312
279 287 288 290 294 296 295 295 297 298 298 296 295 293 292 290 291 291 290 290 290 291 290 290 292 293 296 299 300 299 300 302 302 303 305 305 305 306 298 299 299 297 298 307
285 290 292 294 295 296 295 296 298 299 297 295 294 293 291 290 290 291 291 292 293 295 297 296 292 291 295 298 299 299 300 301 303 303 305 304 304 305 304 300 297 301 298 295
294 293 291 293 292 296 296 298 299 299 297 295 294 293 291 289 289 290 291 293 296 302 300 300 295 293 296 298 298 300 301 299 303 306 306 307 307 307 307 306 305 307 300 298
293 295 294 295 295 295 296 297 296 297 295 293 293 291 289 289 290 290 293 295 296 300 301 299 296 296 297 297 297 299 300 302 303 306 309 308 308 308 309 309 309 310 306 300
292 293 293 292 293 294 294 295 295 295 294 292 292 291 290 292 291 292 293 294 293 296 298 302 299 300 300 300 300 301 303 299 302 308 309 312 312 312 312 314 311 310 311 307
292 290 290 290 292 292 293 295 296 295 294 293 292 292 291 291 291 291 292 294 294 297 294 296 300 304 303 303 304 305 306 306 302 310 311 313 314 316 315 313 313 314 311 308
294 294 294 293 292 292 293 295 296 297 294 294 293 293 292 291 290 290 291 293 293 294 293 293 297 304 308 308 307 311 316 318 315 316 318 318 318 317 316 316 315 314 313 305
293 293 293 293 293 293 293 294 295 296 297 294 293 293 293 293 291 291 291 292 289 288 288 294 294 311 317 313 313 318 315 316 314 316 318 310 316 317 317 317 316 316 317 318
292 293 294 293 293 293 292 293 294 294 297 296 293 294 293 293 292 291 290 290 289 289 290 293 296 301 320 314 311 321 321 320 318 318 317 317 317 316 315 308 317 318 318 317
291 292 292 292 292 293 292 293 292 293 296 296 293 294 293 293 292 291 288 286 288 289 290 292 292 293 302 317 319 319 318 317 316 315 315 315 315 315 313 313 313 313 311 309
290 291 291 291 291 292 292 292 292 293 295 296 294 294 294 292 292 290 291 287 288 288 290 290 290 289 296 307 318 317 316 315 314 314 312 312 311 309 309 308 308 306 305 303
290 291 291 292 291 291 292 292 292 292 293 294 293 292 293 292 292 288 286 289 288 287 289 288 287 287 290 317 315 313 311 310 309 308 308 309 309 308 306 303 302 302 300 299
289 289 289 291 291 290 289 291 291 292 293 294 294 292 294 291 291 291 290 289 287 287 288 287 287 287 292 306 313 309 306 306 305 304 302 298 305 305 304 301 297 295 294 292
288 288 288 288 288 288 289 290 291 290 292 292 294 292 293 294 290 290 290 288 287 287 287 287 287 287 292 294 303 306 305 305 305 305 304 303 301 300 299 298 296 295 293 292
288 287 287 288 287 288 289 289 289 290 290 290 293 293 291 293 292 290 289 288 287 286 286 287 287 287 289 290 294 300 301 300 300 299 299 299 298 296 295 294 293 292 290 289
287 288 286 286 287 289 288 288 289 289 290 289 290 292 291 292 291 290 288 287 286 285 285 286 286 286 287 288 289 292 296 295 293 296 295 294 295 292 291 290 289 289 289 288

GFSNGP_sfc_thetae_075.txt.gz
Theta_e
285 287 288 287 287 288 285 287 283 286 286 290 293 293 295 295 297 298 300 302 303 304 304 304 305 304 304 303 303 304 304 303 303 303 304 304 305 305 306 307 308 309 310 312
284 288 287 286 288 290 290 291 290 289 288 293 295 294 294 294 295 296 297 298 300 303 301 299 300 303 303 303 304 305 304 304 305 305 304 304 304 304 304 304 305 305 306 307
279 286 285 281 287 289 290 291 290 283 288 292 292 293 293 293 295 296 297 298 297 297 298 298 299 300 300 301 303 303 303 304 305 305 305 305 305 304 303 302 303 304 305 308
278 281 275 286 295 293 291 292 292 291 291 293 293 294 295 296 295 295 296 296 297 297 298 299 299 299 300 300 302 303 303 305 305 305 305 304 304 303 302 302 302 303 305 307
276 275 282 288 293 292 289 287 292 291 292 292 293 293 292 295 296 294 294 297 299 300 300 300 299 300 299 299 300 300 301 304 304 305 304 304 304 303 302 301 301 302 305 306
280 278 271 284 293 295 293 282 292 291 290 290 291 286 289 294 297 297 298 299 300 300 300 299 299 300 298 298 299 298 299 301 304 305 305 304 304 303 303 301 303 305 305 306
281 280 280 290 293 295 279 281 290 291 291 291 290 292 295 298 298 299 300 299 299 297 297 298 299 299 297 298 297 299 300 301 302 304 305 305 304 303 302 301 303 303 303 305
283 278 275 293 291 283 287 290 292 292 293 293 294 296 296 298 297 296 297 297 297 296 296 298 299 298 297 296 299 301 301 301 301 303 304 305 302 302 301 301 301 301 301 303
283 280 288 290 290 292 293 291 292 293 295 295 295 296 297 295 295 295 294 295 296 294 294 295 297 298 296 296 300 300 300 300 300 302 303 304 303 301 301 301 302 302 302 303
285 287 288 290 292 293 294 293 295 295 296 297 295 296 294 294 293 292 293 292 293 293 292 292 294 295 296 296 299 300 299 300 301 302 303 303 303 303 303 302 302 303 303 303
284 286 289 291 292 292 294 295 296 297 297 297 296 295 293 291 291 291 291 291 291 291 291 290 291 292 294 296 298 298 299 301 301 303 303 303 304 304 304 305 304 305 306 308
279 285 288 289 291 294 294 294 295 295 296 297 296 293 291 290 291 290 289 290 291 292 294 295 297 292 293 296 297 298 298 299 300 301 302 304 304 304 296 299 298 297 298 304
285 292 292 293 295 296 294 294 295 296 297 296 295 292 291 290 289 291 291 290 291 293 297 297 295 292 293 294 296 298 298 300 301 302 303 303 304 303 302 300 297 298 295 295
292 293 290 293 291 294 294 295 297 297 298 296 295 293 291 289 290 290 290 291 294 295 300 296 293 292 293 295 297 298 299 298 302 302 303 303 305 305 305 303 304 304 298 297
291 294 293 293 293 293 294 294 294 294 295 295 295 292 291 289 291 291 292 294 295 297 297 299 296 294 296 297 298 298 300 301 301 302 305 304 306 304 305 305 305 304 306 298
293 294 291 291 292 293 292 293 292 293 294 294 293 292 292 293 293 291 292 293 292 294 294 297 299 298 297 297 297 299 300 298 299 302 304 307 307 307 306 306 306 308 308 308
287 287 289 290 291 291 291 292 293 293 293 293 293 294 293 293 292 290 291 293 292 294 293 292 296 299 301 299 299 300 302 303 299 306 305 307 310 309 308 308 310 310 309 305
288 290 292 292 291 291 291 292 292 292 292 294 295 293 293 291 290 289 290 292 291 292 292 291 295 297 305 304 303 304 304 305 304 304 310 309 311 314 314 314 313 310 309 305
289 289 292 293 293 292 291 291 291 292 293 295 293 291 293 292 291 289 290 291 287 287 287 291 292 301 311 306 304 307 308 309 311 307 309 307 313 315 315 314 313 313 313 313
288 291 292 293 292 292 291 292 292 292 293 294 292 291 292 291 291 289 289 289 287 287 289 291 295 298 317 308 304 315 315 317 317 317 317 315 315 315 315 308 315 316 317 316
288 290 291 291 290 292 292 292 291 291 292 294 291 290 292 291 291 289 287 286 287 287 290 290 290 292 301 313 316 318 317 317 317 316 315 315 315 315 314 313 312 312 310 309
287 289 289 290 290 289 291 291 291 291 291 292 292 291 292 290 290 289 290 286 287 287 290 289 288 288 298 303 316 315 314 314 314 314 313 312 311 310 309 309 307 307 305 303
287 288 289 289 289 289 290 291 290 291 290 291 291 290 291 290 290 286 285 288 288 286 289 288 286 288 291 310 310 310 309 309 309 309 309 308 307 306 305 304 302 301 300 299
287 288 288 289 289 289 288 289 290 290 290 291 292 292 290 289 289 290 289 288 286 286 287 286 286 287 290 299 304 305 305 305 305 306 305 298 304 303 300 297 295 295 293 293
287 287 286 286 286 287 288 289 289 289 289 289 291 291 291 292 289 289 288 287 286 286 287 286 286 287 290 291 295 299 300 300 302 304 303 302 300 298 297 295 295 294 293 293
287 285 284 285 285 286 287 288 287 288 288 287 289 290 290 292 291 290 288 287 286 285 286 286 286 286 287 288 290 293 294 295 297 298 298 298 297 296 295 294 292 291 290 289
284 286 284 285 285 286 286 287 287 287 288 288 287 289 290 291 290 289 287 286 285 284 284 285 285 285 285 286 287 289 291 291 290 292 294 294 293 292 292 291 290 289 289 288